Location: ????????
(55.5667°N, 37.5833°E)
Time: 18:18:57
(UTC+00:00)

Cosmos 1378 Rocket - Pass Details

Date: 14 April 2026
Orbit: 594 x 620 km, 82.5° (Epoch: 19 May)

Event Time Altitude Azimuth Distance (km) Brightness Sun altitude
Rises 17:20:19 0° 352° (N) 2,911 7.6 -6.9°
Reaches altitude 10° 17:22:46 10° 3° (N) 1,999 6.5 -7.2°
Maximum altitude 17:26:45 32° 67° (ENE) 1,069 4.5 -7.7°
Enters shadow 17:30:41 10° 131° (SE) 1,969 5.5 -8.2°
